Regional Weather Roundup
Issued by NWS Kansas City/Pleasant Hill, MO

Home | Current Version | Previous Version | Text Only | Print | Product List | Glossary On
Versions: 1 2 3 4 5 6 7 8 9 10 11 12 13 14 15 16 17 18 19 20 21 22 23 24 25 26 27 28
000
ASUS43 KEAX 230110
RWREAX

WEATHER ROUNDUP FOR EASTERN KANSAS AND NORTHWEST MISSOURI
NATIONAL WEATHER SERVICE KANSAS CITY/PLEASANT HILL MO
700 PM CST THU FEB 22 2018

KSZ040-057-103>105-MOZ028-029-037-043-230200-
...KANSAS CITY METROPOLITAN AREA...

CITY           SKY/WX    TMP DP  RH WIND       PRES   REMARKS
K.C. INTL      LGT RAIN  33  33 100 S5        30.18S VSB 1   WCI  29
K.C. DOWNTOWN  LGT RAIN  35  32  88 E5        30.18S WCI  31
LEES SUMMIT    CLOUDY    33  33 100 E6        30.17F FOG     WCI  28
OLATHE - IXD   LGT RAIN  33  33 100 CALM      30.17S FOG
OLATHE - OJC   MIX PCPN  32  32 100 CALM      30.17R FOG
LAWRENCE       LGT RAIN  33  33 100 W3        30.20R FOG

$$

MOZ001>008-011>017-020>025-030>033-038>040-044>046-053-054-230200-
...NORTHERN AND CENTRAL MISSOURI...

CITY           SKY/WX    TMP DP  RH WIND       PRES   REMARKS
ST. JOSEPH     CLOUDY    32  32 100 SE6       30.19F FOG     WCI  26
MOSBY          LGT RAIN  32  32 100 E5        30.21R WCI  27
WARRENSBURG    CLOUDY    34  34 100 E6        30.19F WCI  29
WHITEMAN AFB   LGT RAIN  36  35  95 SE7       30.15F WCI  30
CLINTON        CLOUDY    37  37 100 SE8       30.19F WCI  31
SEDALIA        LGT RAIN  37  37 100 E12       30.21F FOG     WCI  29
WARSAW         NOT AVBL
CHILLICOTHE      N/A     34  33  96 E7        30.21S WCI  28
KIRKSVILLE     FOG       33  33 100 E10       30.23F VSB 1/4 WCI  25

$$

MOZ041-047>049-056>058-063>065-088>090-097-230200-
...EASTERN AND SOUTHERN MISSOURI...

CITY           SKY/WX    TMP DP  RH WIND       PRES   REMARKS
ST. LOUIS INTL CLOUDY    43  43 100 S3        30.31S FOG
SPIRIT OF STL  CLOUDY    42  41  96 E3        30.29F FOG
COLUMBIA       FOG       37  32  82 SE12      30.22F VSB 1   WCI  29
JEFFERSON CITY CLOUDY    38  37  97 E9        30.25F FOG     WCI  31
ROLLA          LGT RAIN  39  39 100 E10       30.23F FOG     WCI  32
OSAGE BEACH    LGT RAIN  38  38 100 E5        30.24R FOG     WCI  34
SPRINGFIELD    LGT RAIN  42  41  96 SE9       30.17S
BRANSON        LGT RAIN  39  39 100 NW8       30.25R FOG     WCI  34
JOPLIN         CLOUDY    42  42 100 S3        30.18S
WEST PLAINS    CLOUDY    41  40  96 E8        30.23S

$$

IAZ060-094-KSZ022-034>040-054-083-096-NEZ052-066-093-230200-
...KANSAS...SOUTHEAST NEBRASKA AND IOWA...

CITY           SKY/WX    TMP DP  RH WIND       PRES   REMARKS
TOPEKA         LGT RAIN  33  33 100 CALM      30.18S FOG
MANHATTAN      FRZ RAIN  32  31  96 CALM      30.18F FOG
EMPORIA        MIX PCPN  32  31  96 W3        30.17S FOG
CHANUTE        CLOUDY    36  35  96 CALM      30.17S FOG
WICHITA        FRZ DRZL  32  32 100 CALM      30.15R FOG
OMAHA          CLOUDY    31  28  89 CALM      30.19R
LINCOLN        CLOUDY    30  29  96 S7        30.20S FOG     WCI  23
FALLS CITY     FRZ RAIN  31  30  96 SE6       30.18S FOG     WCI  25
LAMONI         CLOUDY    32  30  92 E7        30.19S FOG     WCI  26
DES MOINES     FRZ DRZL  32  31  96 E9G22     30.19F FOG     WCI  24

$$





USA.gov is the U.S. government's official web portal to all federal, state and local government web resources and services.